USA 134

Last updated on Sun Jun 21 2026 00:03:03 GMT+0000 (Coordinated Universal Time)

1 25019U 97065A 26171.39030080 -.00000073 00000+0 00000+0 0 9993 2 25019 12.7884 21.7019 0003372 339.9641 295.1138 1.00268962 32984
UTC large
Height (km)
Speed (km/s)
/
Latitude / Longitude
Inclination (degrees)
Orbital Period (minutes)
Azimuth
Elevation
Range (km)
Doppler Factor

Next 0 passes for location: London (51.5072 / 0.1276)

No passes found over London.
USA 134